TimeEST,TemperatureF,Dew PointF,Humidity,Sea Level PressureIn,VisibilityMPH,Wind Direction,Wind SpeedMPH,Gust SpeedMPH,PrecipitationIn,Events,Conditions,WindDirDegrees,DateUTC
12:15 AM,38.7,38.5,99,30.07,0.2,ENE,3.5,-,N/A,Fog,Fog,70,2012-12-03 05:15:00
12:35 AM,41.0,40.8,99,30.06,0.2,Calm,Calm,-,N/A,Fog,Fog,0,2012-12-03 05:35:00
12:55 AM,41.2,41.0,99,30.07,0.2,Calm,Calm,-,N/A,Fog,Fog,0,2012-12-03 05:55:00
1:14 AM,41.0,41.0,100,30.06,0.5,Calm,Calm,-,N/A,Fog,Fog,0,2012-12-03 06:14:00
1:35 AM,41.7,41.5,99,30.06,1.0,ESE,3.5,-,N/A,,Mostly Cloudy,120,2012-12-03 06:35:00
1:56 AM,46.4,46.0,99,30.07,2.5,ESE,3.5,-,N/A,,Overcast,120,2012-12-03 06:56:00
2:15 AM,47.3,46.9,99,30.07,2.5,SE,4.6,-,N/A,,Overcast,130,2012-12-03 07:15:00
2:35 AM,47.8,47.7,99,30.07,1.2,SE,3.5,-,N/A,,Overcast,130,2012-12-03 07:35:00
2:56 AM,48.6,48.4,99,30.06,1.0,ESE,3.5,-,N/A,,Overcast,120,2012-12-03 07:56:00
3:15 AM,49.1,48.7,99,30.06,0.5,East,3.5,-,N/A,Fog,Fog,100,2012-12-03 08:15:00
3:35 AM,49.1,48.7,99,30.06,0.5,Calm,Calm,-,N/A,Fog,Fog,0,2012-12-03 08:35:00
3:55 AM,50.0,49.8,99,30.06,0.2,ESE,3.5,-,N/A,Fog,Fog,120,2012-12-03 08:55:00
4:15 AM,50.2,50.0,99,30.05,0.2,Calm,Calm,-,N/A,Fog,Fog,0,2012-12-03 09:15:00
4:35 AM,50.9,50.7,99,30.05,0.2,SE,3.5,-,N/A,Fog,Fog,130,2012-12-03 09:35:00
4:55 AM,51.4,51.3,99,30.04,0.2,ESE,4.6,-,N/A,Fog,Fog,120,2012-12-03 09:55:00
5:16 AM,52.0,51.8,99,30.04,0.2,SE,4.6,-,N/A,Fog,Fog,140,2012-12-03 10:16:00
5:35 AM,52.7,52.5,99,30.03,0.2,SSE,5.8,-,N/A,,Unknown,150,2012-12-03 10:35:00
5:55 AM,52.9,52.7,99,30.03,0.5,SSE,9.2,-,N/A,,Unknown,160,2012-12-03 10:55:00
6:16 AM,53.1,52.9,99,30.02,0.5,SSE,8.1,-,N/A,Rain,Light Rain,160,2012-12-03 11:16:00
6:35 AM,53.6,53.2,99,30.02,0.8,SSE,5.8,-,N/A,,Overcast,160,2012-12-03 11:35:00
6:55 AM,53.8,53.6,99,30.02,1.2,SSE,5.8,-,N/A,,Overcast,150,2012-12-03 11:55:00
7:15 AM,54.3,54.1,99,30.02,1.5,SSE,6.9,-,N/A,,Overcast,150,2012-12-03 12:15:00
7:35 AM,54.9,54.7,99,30.01,2.5,SE,4.6,-,N/A,,Overcast,140,2012-12-03 12:35:00
7:56 AM,55.4,55.0,99,30.01,2.5,SSE,6.9,-,N/A,,Overcast,150,2012-12-03 12:56:00
8:15 AM,55.8,55.6,99,30.01,1.2,SSE,5.8,-,N/A,,Overcast,150,2012-12-03 13:15:00
8:35 AM,56.3,55.9,99,30.01,1.5,SSE,6.9,-,N/A,,Overcast,150,2012-12-03 13:35:00
8:55 AM,56.8,56.5,99,30.00,1.8,SSE,5.8,-,N/A,,Overcast,150,2012-12-03 13:55:00
9:15 AM,57.2,56.8,99,30.00,2.0,SSE,8.1,-,N/A,,Overcast,150,2012-12-03 14:15:00
9:36 AM,57.9,57.4,98,30.00,2.0,SSE,9.2,-,N/A,,Overcast,160,2012-12-03 14:36:00
9:55 AM,58.1,57.6,98,29.99,1.8,SSE,9.2,-,N/A,,Overcast,160,2012-12-03 14:55:00
10:15 AM,58.6,58.1,98,29.99,2.0,SSE,9.2,-,N/A,,Overcast,150,2012-12-03 15:15:00
10:35 AM,59.0,58.3,97,29.99,2.0,SSE,8.1,-,N/A,,Overcast,160,2012-12-03 15:35:00
10:56 AM,59.5,58.6,97,29.98,2.5,SSE,8.1,-,N/A,,Overcast,150,2012-12-03 15:56:00
11:15 AM,60.1,59.0,96,29.97,3.0,SSE,8.1,-,N/A,,Overcast,160,2012-12-03 16:15:00
11:35 AM,60.4,59.4,96,29.96,3.0,SSE,9.2,-,N/A,,Overcast,160,2012-12-03 16:35:00
11:56 AM,61.0,59.7,96,29.95,4.0,SSE,6.9,-,N/A,,Overcast,160,2012-12-03 16:56:00
12:15 PM,61.2,59.7,95,29.94,4.0,South,8.1,-,N/A,,Overcast,170,2012-12-03 17:15:00
12:36 PM,61.7,60.1,94,29.93,4.0,South,10.4,17.3,N/A,,Overcast,170,2012-12-03 17:36:00
12:55 PM,61.7,60.3,95,29.92,4.0,South,10.4,-,N/A,,Overcast,170,2012-12-03 17:55:00
1:15 PM,62.1,60.8,96,29.91,4.0,South,10.4,16.1,N/A,,Overcast,170,2012-12-03 18:15:00
1:36 PM,62.2,60.8,95,29.90,4.0,South,9.2,16.1,N/A,,Overcast,170,2012-12-03 18:36:00
1:55 PM,62.2,60.8,95,29.90,3.0,South,10.4,17.3,N/A,,Overcast,180,2012-12-03 18:55:00
2:16 PM,62.8,61.3,95,29.89,4.0,South,10.4,-,N/A,,Overcast,180,2012-12-03 19:16:00
2:35 PM,63.5,61.3,93,29.88,5.0,South,10.4,-,N/A,,Overcast,180,2012-12-03 19:35:00
2:55 PM,64.4,61.2,89,29.88,5.0,South,10.4,-,N/A,,Overcast,180,2012-12-03 19:55:00
3:16 PM,65.1,61.2,87,29.86,7.0,South,11.5,-,N/A,,Overcast,170,2012-12-03 20:16:00
3:35 PM,65.3,61.2,86,29.85,7.0,SSE,8.1,-,N/A,,Overcast,160,2012-12-03 20:35:00
3:55 PM,65.5,61.2,86,29.85,7.0,South,9.2,19.6,N/A,,Mostly Cloudy,170,2012-12-03 20:55:00
4:15 PM,65.5,61.0,85,29.84,7.0,SSE,10.4,17.3,N/A,,Mostly Cloudy,160,2012-12-03 21:15:00
4:35 PM,65.7,60.8,84,29.84,7.0,South,13.8,23.0,N/A,,Mostly Cloudy,170,2012-12-03 21:35:00
4:56 PM,65.5,60.8,85,29.84,7.0,South,12.7,24.2,N/A,,Scattered Clouds,170,2012-12-03 21:56:00
5:15 PM,65.3,60.4,84,29.84,10.0,South,12.7,16.1,N/A,,Scattered Clouds,170,2012-12-03 22:15:00
5:35 PM,64.8,60.3,85,29.83,10.0,SSE,9.2,16.1,N/A,,Scattered Clouds,160,2012-12-03 22:35:00
5:56 PM,64.6,60.3,86,29.83,10.0,South,12.7,19.6,N/A,,Clear,170,2012-12-03 22:56:00
6:15 PM,64.4,60.1,86,29.83,10.0,South,13.8,17.3,N/A,,Clear,170,2012-12-03 23:15:00
6:36 PM,64.4,59.9,85,29.84,10.0,South,10.4,-,N/A,,Clear,170,2012-12-03 23:36:00
6:55 PM,64.4,59.9,85,29.85,10.0,South,9.2,-,N/A,,Scattered Clouds,180,2012-12-03 23:55:00
7:15 PM,65.5,59.9,82,29.85,10.0,South,9.2,16.1,N/A,,Overcast,190,2012-12-04 00:15:00
7:36 PM,65.7,59.5,81,29.85,10.0,SSW,9.2,-,N/A,,Overcast,200,2012-12-04 00:36:00
7:55 PM,66.7,59.0,76,29.84,10.0,South,10.4,20.7,N/A,,Mostly Cloudy,190,2012-12-04 00:55:00
8:15 PM,66.4,58.8,77,29.84,10.0,SSW,12.7,19.6,N/A,,Scattered Clouds,200,2012-12-04 01:15:00
8:35 PM,67.3,57.6,71,29.84,10.0,SSW,18.4,26.5,N/A,,Clear,210,2012-12-04 01:35:00
8:55 PM,67.8,57.2,69,29.84,10.0,SSW,12.7,31.1,N/A,,Mostly Cloudy,210,2012-12-04 01:55:00
9:15 PM,67.5,57.4,70,29.84,10.0,SSW,13.8,27.6,N/A,,Overcast,200,2012-12-04 02:15:00
9:35 PM,67.1,57.4,71,29.84,10.0,SW,15.0,29.9,N/A,,Overcast,220,2012-12-04 02:35:00
9:56 PM,67.1,57.0,70,29.84,10.0,SSW,17.3,28.8,N/A,,Overcast,210,2012-12-04 02:56:00
10:15 PM,66.6,56.8,71,29.84,10.0,SSW,20.7,26.5,N/A,,Overcast,210,2012-12-04 03:15:00
10:35 PM,66.4,56.8,71,29.84,10.0,SSW,13.8,28.8,N/A,,Overcast,210,2012-12-04 03:35:00
10:56 PM,66.2,56.8,72,29.84,10.0,SSW,16.1,27.6,N/A,,Overcast,210,2012-12-04 03:56:00
11:15 PM,65.8,56.7,72,29.84,10.0,SSW,17.3,28.8,N/A,,Overcast,210,2012-12-04 04:15:00
11:35 PM,65.8,56.8,73,29.85,10.0,SSW,17.3,27.6,N/A,,Overcast,210,2012-12-04 04:35:00
11:55 PM,65.7,56.8,73,29.85,10.0,SSW,13.8,23.0,N/A,,Overcast,210,2012-12-04 04:55:00